User: anonymous   Login
Location: Axtheid
(49.6213°N, 11.8205°E)
Time: 00:43:35
(UTC+00:00)
Language:

Okean O Rocket - Orbit

View from above orbital plane
View from above orbital plane
View from above satellite
View from above satellite

Ground track
Ground track

The orbit data is extracted from the following two-line orbital elements,

1 25861U 99039B   21102.52173802  .00000026  00000-0  11034-4 0  9997
2 25861  98.2082 116.6020 0014294 278.1984 199.3542 14.78631870171814
Epoch (UTC): 12 April 2021 12:31:18
Eccentricity: 0.0014294
inclination: 98.2082°
perigee height: 623 km
apogee height: 643 km
right ascension of ascending node: 116.6020°
argument of perigee: 278.1984°
revolutions per day: 14.78631870
mean anomaly at epoch: 199.3542°
orbit number at epoch: 17181

The dashed part of the orbit path shows where the satellite is in the earth's shadow,  

DLR